Location: Unspecified
(20.0000°S, 0.0000°E)
Time: 10:33:23
(UTC+00:00)

BEESAT - Pass Details

Date: 23 August 2019
Orbit: 701 x 708 km, 98.6° (Epoch: 19 September)

Event Time Altitude Azimuth Distance (km) Brightness Sun altitude
Rises 04:52:24 0° 165° (SSE) 3,107 ? -20.3°
Reaches altitude 10° 04:54:41 10° 163° (SSE) 2,182 ? -19.8°
Maximum altitude 04:59:27 72° 78° (ENE) 741 ? -18.6°
Drops below altitude 10° 05:04:10 10° 353° (N) 2,159 ? -17.5°
Sets 05:06:25 0° 351° (N) 3,070 ? -17.0°
